DELTA 1 DEB, 14528

Orbit data source: Space-Track

DELTA 1 DEB, 14528 is space debris in LEO originally from a launch on Thu, 14 Jul 1977 UTC launched from the Air Force Eastern Test Range (AFETR). Debris objects in space refer to the collection of defunct objects orbiting the Earth. Examples of debris include non-operational satellites, rocket bodies, and fragments generated from explosions, collisions, or faulty payload assembly.

Loading next visibility...
Identifier
14528, 1977-065FP
Orbit
LEO
Last TLE update
2 days ago
Origin
Manufacturer
Unknown
Mission
Spacecraft
Bus & Motor
Unknown
Mass
Unknown
Launch date (UTC)
1977-07-14 (48 years ago)
Launch vehicle
Unknown
Launch site
Air Force Eastern Test Range (AFETR)
Object type
Payload
Rocket body
Debris
Shape & HBR
Unknown
Radar Cross Section
Small (<0.1 m²)

Expand to show TLE details & history

TLE from 2 days ago
0 DELTA 1 DEB
1 14528U 77065FP  25185.19361795  .00000365  00000-0  17300-2 0  9994
2 14528  28.0716 146.2958 0314018  43.8748 318.6266 12.46519862532648
Epoch: 2025-07-04T04:38Z
TLE epoch observation values (Epoch: 2025-07-04T04:38:48.59Z)
Latitude
-0.00003°
Longitude
154.14376°
Altitude
1,295.923 km
Speed
7.293 km/s
True Right ascension
09h 45m 10s
True Declination
0° 00' 00"
Sunlit
Object was in daylight at epoch
Visualization orbit readout
Latitude
3.67637°
Longitude
153.52647°
Altitude
1,308.889 km
Speed
7.281 km/s
Apparent Right ascension
07h 55m 30s
Apparent Declination
-46° 39' 55"
Sunlit
Object is in daylight
Visualization observer readout
Local Sidereal Time
10:55:10
Azimuth
209.125° SW
Elevation
-5.394°
Doppler factor
1
Orbital elements
Apogee altitude
1,729.689 km
Perigee altitude
1,235.992 km
Semi-major axis
7,860.977 km
Eccentricity
0.0314
Inclination
28.0716°
RAAN
146.2958°
Arg. of periapsis
43.8748°
True anomaly
Unknown
Mean anomaly
318.6266°
Eccentric anomaly
Unknown
Mean motion
3.11407 °/min
Orbital period
115.6 mins
BSTAR
0.00173
Loading maneuver chart data...
Loading SW <> Apogee altitude chart data...

DELTA 1 DEB Visibility forecast

Observer location: undefined°, undefined°

Span
Click to sort rows by Start time (UTC) header in descending order
Start Az.
Max El. time (UTC)
Max El. Az.
Max El.
End time (UTC)
End Az.
11 mins2025-07-06 01:06:54.102Z210.904° SW2025-07-06 01:11:54.102Z163.409° S24.106°2025-07-06 01:17:54.102Z111.855° ESE
12 mins2025-07-06 03:08:54.102Z235.714° WSW2025-07-06 03:14:54.102Z172.503° S29.895°2025-07-06 03:20:54.102Z120.035° SE
12 mins2025-07-06 05:11:54.102Z243.004° WSW2025-07-06 05:16:54.102Z197.737° SSW25.568°2025-07-06 05:23:54.102Z140.543° SSE
7 mins2025-07-06 07:16:54.102Z228.39° WSW2025-07-06 07:19:54.102Z206.675° SW13.809°2025-07-06 07:23:54.102Z179.561° S
|